Regional Weather Roundup
Issued by NWS Wakefield, VA

Home | Current Version | Previous Version | Text Only | Print | Product List | Glossary On
Versions: 1 2 3 4 5 6 7 8 9 10 11 12 13 14 15 16 17 18 19 20 21 22 23 24 25 26 27 28 29 30 31 32 33 34 35 36 37 38 39 40 41 42 43 44 45 46 47 48 49 50
000
ASUS41 KAKQ 220915
RWRAKQ

REGIONAL WEATHER ROUNDUP
NATIONAL WEATHER SERVICE WAKEFIELD VA
500 AM EDT FRI MAY 22 2015

Note: "fair" indicates few or no clouds below 12,000 feet with no
significant weather and/or obstructions to visibility. * = Denotes
station may not report precipitation (e.g., rain,snow,etc.),
thunder or fog.

VAZ042-051-052>054-056-221000-
NORTHERN VIRGINIA

CITY           SKY/WX    TMP DP  RH WIND       PRES   REMARKS
WASH NATIONAL  PTCLDY    54  45  71 NW6       30.02R
DULLES         PTCLDY    49  43  80 VRB5      30.02R
FORT BELVOIR   CLEAR     46  45  93 VRB2      30.02R FOG
QUANTICO       CLEAR     51  45  79 NW6       30.04R
FREDERICKSBRG* CLEAR     52  50  92 CALM      30.03R
STAFFORD*      CLEAR     46  44  93 NW3       30.07R
WARRENTON      CLEAR     49  45  86 W3        30.03R
CULPEPER*      CLEAR     47  42  84 CALM      30.04R
MANASSAS*      NOT AVBL
LEESBURG*      CLEAR     50  46  87 NW7       30.03R
WINCHESTER     CLEAR     46  37  71 W3        30.04R
FRONT ROYAL*   FAIR      46  41  81 CALM      30.04R
LURAY*         FAIR      52  41  66 W3        30.06R
$$

VAZ048-049-060>072-079>083-221000-
CENTRAL AND SOUTH CENTRAL VIRGINIA

CITY           SKY/WX    TMP DP  RH WIND       PRES   REMARKS
RICHMOND       CLEAR     53  47  79 NW7       30.04R
CHESTERFIELD*  NOT AVBL
PETERSBURG*    CLEAR     53  51  94 W3        30.05R
HANOVER        PTCLDY    48  47  96 VRB3      30.05R FOG
TAPPAHANNOCK*  CLEAR     50  46  84 CALM      30.02R
QUINTON*       FAIR      51  48  92 N7        30.03R
CHARLOTTSVILLE CLEAR     52  41  66 NW10G18   30.04R
GORDONSVILLE*  FAIR      47  44  88 NW7       30.05R
ORANGE*        CLEAR     52  43  71 W6        30.06R
LOUISA*        PTCLDY    43  43 100 CALM      30.03R FOG
BUMPASS*       FAIR      48  47  96 N6        30.04R
FARMVILLE*     CLEAR     49  49 100 CALM      30.04R
CREWE*         FAIR      53  46  79 CALM      30.05R
FORT PICKETT*  FAIR      50  49  96 W5        30.05R
CHASE CITY*    PTSUNNY   53  53 100 NW3       30.06R
CLARKSVILLE*   FAIR      52  46  82 CALM      30.05R
SOUTH HILL*    CLEAR     51  50  98 CALM      30.11R
LAWRENCEVILLE*   N/A     50  50 100 CALM      30.05R
EMPORIA*       CLEAR     50  50 100 CALM      30.06R
$$

VAZ088>098-221000-
SOUTHEAST VIRGINIA

CITY           SKY/WX    TMP DP  RH WIND       PRES   REMARKS
NORFOLK        CLOUDY    56  50  80 NW8       30.01R
VIRGINIA BEACH MOCLDY    58  51  78 NW10      29.99R
NORFOLK NAVAL  PTCLDY    58  50  75 NW9       30.02R
WEST POINT*    CLEAR     54  48  81 NW6       30.03R
SALUDA*        FAIR      55  49  80 NW15G24   29.99R
NEWPORT NEWS   CLEAR     56  49  77 NW8       30.02R
LANGLEY AFB    CLEAR     52  50  91 NW7       30.01R
FORT EUSTIS    PTCLDY    55  54  99 NW8       30.00R
WILLIAMSBURG*  CLEAR     54  52  94 NW7       30.03R
HR EXEC AP*    FAIR      52  46  82 W3        30.04R
FRANKLIN*      CLEAR     51  50  97 CALM      30.04R
WAKEFIELD      PTCLDY    53  51  93 CALM      30.03R
$$

VAZ020-022-025-037-045-221000-
WEST CENTRAL AND SOUTHWEST VIRGINIA

CITY           SKY/WX    TMP DP  RH WIND       PRES   REMARKS
STAUNTON*      CLEAR     45  42  89 CALM      30.09R
WAYNESBORO*    FAIR      45  40  82 W5        30.08R
HOT SPRINGS VA MOCLDY    40  38  93 NW13G23   30.06S
LYNCHBURG      CLEAR     51  40  65 NW6       30.08R
DANVILLE       PTCLDY    53  44  71 CALM      30.09R
SOUTH BOSTON*  FAIR      51  45  80 NW7       30.07R
MARTINSVILLE   CLEAR     46  46 100 CALM      30.12R
ROANOKE        CLOUDY    53  41  63 W8        30.12R
BLACKSBURG     CLOUDY    47  40  76 NW9       30.15R
DUBLIN*        CLOUDY    49  42  75 NW3       30.15R
MARION*        PTCLDY    46  39  76 W8        30.17R
HILLSVILLE*    CLEAR     45  39  79 NW16      30.11S
RICHLANDS*     CLOUDY    43  29  58 NW5       30.17R HAZE
WISE*          CLOUDY    45  45 100 CALM      30.18S FOG
ABINGDON*      CLEAR     46  43  90 CALM      30.17R
$$

MDZ021>025-VAZ099-100-221000-
SOUTHERN MARYLAND AND THE DELMARVA PENINSULA

CITY           SKY/WX    TMP DP  RH WIND       PRES   REMARKS
PATUXENT RIVER CLEAR     52  47  83 W15       29.98R
BAY BRIDGE APT   N/A    N/A N/A N/A NW17      29.99R
LEONARDTOWN    CLEAR     50  45  81 W7        30.01R
DOVER          CLEAR     51  51 100 W9        29.90R
GEORGETOWN     CLEAR     48  47  96 W3        29.95R
EASTON         CLEAR     54  54 100 NW9       30.01R
CAMBRIDGE      PTCLDY    55  50  82 NW15G21   29.97R
SALISBURY      CLEAR     50  49  96 W7        29.95R
OCEAN CITY     CLEAR     49  47  93 NW7       29.94R
WALLOPS ISLAND CLEAR     50  50 100 NW5       29.96R
ACCOMACK*      CLOUDY    55  52  88 NW8       29.96R
$$

NCZ012>017-030>032-221000-
NORTH CENTRAL AND EASTERN NORTH CAROLINA

CITY           SKY/WX    TMP DP  RH WIND       PRES   REMARKS
ROANOKE RAPIDS PTSUNNY   54  52  94 CALM      30.05R
RALEIGH        MOCLDY    56  48  74 VRB5      30.07R
ELIZABETH CITY CLEAR     55  52  89 W10       30.01R
AHOSKIE*       MOCLDY    54  51  92 CALM      30.05R
EDENTON*       PTCLDY    55  52  90 CALM      30.02R
CURRITUCK*     PTCLDY    55  52  89 NW6       30.00S
KILL DEVIL HLS CLOUDY    58  53  82 NW12G20   29.97R
MANTEO         CLOUDY    58  52  78 N16G22    29.99R
CAPE HATTERAS  CLOUDY    60  54  80 N8G18     29.99R
TARBORO*       CLOUDY    56  53  90 CALM      30.06R
GOLDSBORO      MOCLDY    59  55  87 NW6       30.02R
WASHINGTON     MOCLDY   N/A N/A N/A N8        30.02S
GREENVILLE     MOCLDY    57  54  88 N5        30.06R
NEW BERN       CLOUDY    60  54  80 N7        30.04R
WILMINGTON     CLOUDY    61  57  87 N7        30.02R
$$

VAZ048-221000-
ELSEWHERE

CITY           SKY/WX    TMP DP  RH WIND       PRES   REMARKS
HARRISBURG PA  PTCLDY    52  42  69 NW7       29.96R
BALTIMORE      CLEAR     48  45  89 CALM      29.99R
ANNAPOLIS      CLEAR     51  47  86 W6        29.99R
ANDREWS AFB    CLEAR     51  46  83 W8        30.00R
PHILADELPHIA   PTCLDY    53  45  74 NW8       29.93R
HENDERSON NC   CLEAR     51  47  86 NW3       30.06R
GREENSBORO     CLEAR     53  43  68 N6        30.08R
ROCKY MOUNT    MOCLDY    58  55  90 N6        30.05R
$$

VAZ100-221000-
MARINE

STATION/POSITION TIME  TEMP    WIND        PRES    WAVE   SWELL
                       AIR SEA DIR/SP/G            HT/PER HT/PER
                 (UTC) (F)     (DEG/KT/KT) (MB)    (FT/S) (FT/S)
BRANDYWINE LGT   0800   55 62  330/ 13/ 18 1012.5S
CAPE MAY NJ      0800   55 64  310/  6/ 18 1012.0R
LEWES DE         0800   52 63  290/ 12/ 14 1012.6R
15NM E FENWICK I 0850   55 58              1012.4R   4/ 4
OCEAN-CITY-INLET 0800   51 60  330/  9/ 10 1012.8R
WACHAPREAGUE VA  0800   56 63  310/  3/  7 1013.8R
THOMAS POINT MD  0900   53 65  300/ 17/ 18 1015.7R
GOOSES REEF MD   0900   56 65  320/ 21/ 25 1016.1R   0
BISHOPS HEAD MD  0800   54 61  330/ 11/ 12 1013.7R
PINEY POINT MD   0800          340/ 20/ 24   N/A
CAMBRIDGE MD     0800   57 69  320/ 12/ 15 1013.7R
LEWISETTA VA     0800   56 68              1014.9R
RAPPAHANNOCK LGT 0800          330/ 27/ 32 1014.6R
STINGRAY PT      0900   56 69  330/ 17/ 21 1014.9R   1/ 2
YORK RVR RNG VA  0800   55     310/ 13/ 16 1014.6R
YORKTOWN VA      0800   57 70  320/ 17/ 21 1015.0R
JAMESTOWN VA     0900   56 74  350/ 12/ 17 1015.7R
DOMINION TERM VA 0800   57     350/ 12/ 17 1015.5R
KIPTOPEKE VA     0800      72  350/ 19/ 25   N/A
CHES BAY BRIDGE  0800   57 66  320/ 18/ 22 1014.6R
CAPE HENRY VA    0800   58     320/ 22/ 26 1013.5R
CHESAPEAKE LGHT  0800   58     340/ 28/ 30 1014.5R
WILLOUBY STN VA  0800   55     310/ 12/ 14 1015.9R
CAPE HENRY BUOY  0828      62                N/A     5/ 6
1ST LANDING BUOY 0900      63              1015.5R
CAPE CHARLES BUO 0826      64                N/A     4/ 7   2/ 7
OFFSHORE WE BUOY 0811      61                N/A     6/ 6   2/12
64NM E OF VA BCH 0850   58 61  340/ 23/ 27 1013.3R   7/ 7   2/11
DUCK PIER NC     0800   60 66  330/ 25/ 28 1012.9R
44100 DUCK FRF   0824      60                N/A     6/ 7
44056 DUCK FRF   0811      65                N/A     5/ 6
OREGON INLET NC  0800   59 68  330/ 11/ 15 1014.7R
HATTERAS NC      0800   63 73  320/ 15/ 18 1014.5R
DIAMOND SHLS NC  0850   65 76  330/ 17/ 21 1015.0R   4/ 6   2/12
CAPE LOOKOUT NC  0900   61     360/ 11/ 13 1015.7R
$$



USA.gov is the U.S. government's official web portal to all federal, state and local government web resources and services.